This demonstration page uses our WeatherBlox Daily Observations layout. Learn more.

40.92945, -100.16068

Hourly Observations for January 9, 2015

Temp ( °F °C ) Dew Point ( °F °C ) Humidity (%) Winds ( mph kmh ) Pressure ( in mb ) Visibility ( mi km ) Precip ( " mm )
12:15 am 00:15 Clear 16 -9 2 -16.4 55 55 NNW 18 30 30.65 1038 10 16.0934 N/A
12:35 am 00:35 Clear 15 -9.4 3 -16 59 59 NNW 15 24 30.65 1038 10 16.0934 N/A
12:55 am 00:55 Clear 15 -9.7 2 -16.4 58 58 NNW 17 28 30.71 1040 10 16.0934 N/A
1:15 am 01:15 Clear 14 -10 2 -16.9 57 57 NNW 18 30 30.71 1040 10 16.0934 N/A
1:35 am 01:35 Clear 13 -10.5 1 -17.1 59 59 NNW 14 22 30.71 1040 10 16.0934 N/A
1:55 am 01:55 Clear 13 -10.6 0 -17.6 57 57 NNW 13 20 30.71 1040 10 16.0934 N/A
2:15 am 02:15 Clear 12 -11 0 -17.7 58 58 NW 13 20 30.71 1040 10 16.0934 N/A
2:35 am 02:35 Clear 12 -11.2 -1 -18.6 55 55 NW 18 30 30.74 1041 10 16.0934 N/A
2:55 am 02:55 Clear 11 -11.7 -1 -18.6 57 57 NW 14 22 30.77 1042 10 16.0934 N/A
3:15 am 03:15 Clear 10 -12.1 -1 -18.6 59 59 NW 12 19 30.77 1042 10 16.0934 N/A
3:35 am 03:35 Clear 9 -12.6 -2 -19 59 59 NW 9 15 30.77 1042 10 16.0934 N/A
3:55 am 03:55 Clear 9 -12.8 -1 -18.6 62 62 WNW 10 17 30.77 1042 10 16.0934 N/A
4:15 am 04:15 Clear 9 -12.6 -2 -19 59 59 WNW 12 19 30.77 1042 10 16.0934 N/A
4:35 am 04:35 Clear 9 -12.6 -2 -19 59 59 WNW 13 20 30.74 1041 10 16.0934 N/A
4:55 am 04:55 Clear 9 -12.8 -2 -18.8 61 61 WNW 12 19 30.74 1041 10 16.0934 N/A
5:15 am 05:15 Clear 8 -13.1 -2 -18.9 62 62 WNW 12 19 30.74 1041 10 16.0934 N/A
5:35 am 05:35 Clear 8 -13.3 -2 -19 63 63 W 10 17 30.74 1041 10 16.0934 N/A
5:55 am 05:55 Clear 8 -13.1 -2 -19.1 61 61 W 14 22 30.74 1041 10 16.0934 N/A
6:15 am 06:15 Clear 8 -13.5 -2 -19.1 63 63 W 13 20 30.74 1041 10 16.0934 N/A
6:35 am 06:35 Clear 8 -13.3 -2 -19 63 63 WNW 12 19 30.74 1041 10 16.0934 N/A
6:55 am 06:55 Clear 8 -13.3 -2 -19.1 62 62 WNW 12 19 30.74 1041 10 16.0934 N/A
7:15 am 07:15 Clear 8 -13.5 -2 -19.1 63 63 WNW 13 20 30.74 1041 10 16.0934 N/A
7:35 am 07:35 Clear 8 -13.6 -2 -19.1 64 64 WNW 12 19 30.74 1041 10 16.0934 N/A
7:55 am 07:55 Clear 8 -13.6 -2 -19 64 64 WNW 12 19 30.74 1041 10 16.0934 N/A
8:15 am 08:15 Sunny 8 -13.6 -2 -19 64 64 WNW 12 19 30.74 1041 10 16.0934 N/A
8:35 am 08:35 Sunny 8 -13.4 -2 -19 63 63 WNW 12 19 30.77 1042 10 16.0934 N/A
8:55 am 08:55 Sunny 9 -12.8 -1 -18.6 62 62 NW 10 17 30.77 1042 10 16.0934 N/A
9:15 am 09:15 Sunny 10 -12 -2 -18.7 58 58 NW 12 19 30.77 1042 10 16.0934 N/A
9:35 am 09:35 Sunny 12 -11.1 -1 -18.5 55 55 NW 14 22 30.74 1041 10 16.0934 N/A
9:55 am 09:55 Sunny 13 -10.5 0 -18 54 54 NW 15 24 30.74 1041 10 16.0934 N/A
10:15 am 10:15 Sunny 14 -10 -1 -18.1 52 52 NNW 15 24 30.74 1041 10 16.0934 N/A
10:35 am 10:35 Sunny 15 -9.5 0 -17.9 51 51 WNW 15 24 30.77 1042 10 16.0934 N/A
10:55 am 10:55 Sunny 15 -9.4 1 -17.1 54 54 WNW 14 22 30.71 1040 10 16.0934 N/A
11:15 am 11:15 Sunny 15 -9.2 2 -16.6 55 55 WNW 12 19 30.71 1040 10 16.0934 N/A
11:35 am 11:35 Sunny 16 -8.8 3 -15.9 57 57 WNW 12 19 30.71 1040 10 16.0934 N/A
11:55 am 11:55 Sunny 17 -8.5 4 -15.7 56 56 W 10 17 30.68 1039 10 16.0934 N/A
12:15 pm 12:15 Sunny 17 -8.1 4 -15.4 56 56 WNW 12 19 30.68 1039 10 16.0934 N/A
12:35 pm 12:35 Sunny 18 -7.7 4 -15.4 54 54 NW 15 24 30.68 1039 10 16.0934 N/A
12:55 pm 12:55 Sunny 19 -7.2 5 -14.9 55 55 WNW 13 20 30.65 1038 10 16.0934 N/A
1:15 pm 13:15 Sunny 19 -7 5 -15.1 53 53 WNW 12 19 30.65 1038 10 16.0934 N/A
1:35 pm 13:35 Sunny 20 -6.6 4 -15.3 50 50 WNW 13 20 30.59 1036 10 16.0934 N/A
1:55 pm 13:55 Sunny 20 -6.4 4 -15.4 49 49 WNW 12 19 30.59 1036 10 16.0934 N/A
2:15 pm 14:15 Sunny 22 -5.7 4 -15.4 47 47 WNW 12 19 30.56 1035 10 16.0934 N/A
2:35 pm 14:35 Sunny 22 -5.6 4 -15.8 45 45 NW 10 17 30.56 1035 10 16.0934 N/A
2:55 pm 14:55 Sunny 22 -5.4 4 -15.8 44 44 W 12 19 30.56 1035 10 16.0934 N/A
3:15 pm 15:15 Sunny 22 -5.3 3 -16 43 43 WNW 8 13 30.56 1035 10 16.0934 N/A
3:35 pm 15:35 Sunny 23 -5 3 -16.3 41 41 W 9 15 30.56 1035 10 16.0934 N/A
3:55 pm 15:55 Sunny 23 -5.1 2 -16.6 40 40 NW 12 19 30.56 1035 10 16.0934 N/A
4:15 pm 16:15 Sunny 23 -5.1 4 -15.7 44 44 W 7 11 30.56 1035 10 16.0934 N/A
4:35 pm 16:35 Sunny 22 -5.5 4 -15.4 46 46 W 7 11 30.56 1035 10 16.0934 N/A
4:55 pm 16:55 Sunny 21 -6 4 -15.5 47 47 WSW 6 9 30.56 1035 10 16.0934 N/A
5:15 pm 17:15 Sunny 19 -7 5 -14.8 54 54 WSW 6 9 30.56 1035 10 16.0934 N/A
5:35 pm 17:35 Clear 17 -8.2 5 -15 58 58 Calm 30.59 1036 10 16.0934 N/A
5:55 pm 17:55 Clear 18 -8 4 -15.4 56 56 Calm 30.59 1036 10 16.0934 N/A
6:15 pm 18:15 Clear 16 -9 4 -15.4 60 60 Calm 30.59 1036 10 16.0934 N/A
6:35 pm 18:35 Clear 17 -8.6 5 -15.2 59 59 Calm 30.59 1036 10 16.0934 N/A
6:55 pm 18:55 Clear 16 -8.8 4 -15.7 58 58 SSW 5 7 30.59 1036 10 16.0934 N/A
7:15 pm 19:15 Clear 14 -10.1 4 -15.4 66 66 S 5 7 30.59 1036 10 16.0934 N/A
7:35 pm 19:35 Clear 11 -11.4 4 -15.6 71 71 S 5 7 30.59 1036 10 16.0934 N/A
7:55 pm 19:55 Clear 11 -11.6 4 -15.7 72 72 SSE 6 9 30.59 1036 10 16.0934 N/A
8:15 pm 20:15 Clear 11 -11.7 3 -15.9 71 71 SSE 5 7 30.59 1036 10 16.0934 N/A
8:35 pm 20:35 Clear 11 -11.7 3 -16.2 70 70 SSE 6 9 30.59 1036 10 16.0934 N/A
8:55 pm 20:55 Clear 10 -12.2 3 -16.2 72 72 SSE 6 9 30.59 1036 10 16.0934 N/A
9:15 pm 21:15 Clear 11 -11.9 3 -16.2 71 71 S 6 9 30.56 1035 10 16.0934 N/A
9:35 pm 21:35 Clear 11 -11.5 3 -16.2 68 68 S 6 9 30.56 1035 10 16.0934 N/A
9:55 pm 21:55 Clear 11 -11.6 3 -16.3 68 68 S 7 11 30.53 1034 10 16.0934 N/A
10:15 pm 22:15 Clear 12 -11 4 -15.8 68 68 S 8 13 30.5 1033 10 16.0934 N/A
10:35 pm 22:35 Clear 11 -11.8 4 -15.8 72 72 S 8 13 30.53 1034 10 16.0934 N/A
10:55 pm 22:55 Clear 11 -11.5 4 -15.4 73 73 S 10 17 30.48 1032 10 16.0934 N/A
11:15 pm 23:15 Clear 12 -11 4 -15.5 70 70 S 6 9 30.48 1032 10 16.0934 N/A
11:35 pm 23:35 Clear 13 -10.6 5 -14.9 71 71 S 8 13 30.45 1031 10 16.0934 N/A
11:55 pm 23:55 Clear 12 -11 5 -15.1 72 72 S 8 13 30.45 1031 10 16.0934 N/A

Powered by AerisWeather